CW9386 Weather Reports


time (UTC)temp
F
wind
direction
speed
knots
gust
knots
rain 1hr
in
rain 24hr
in
rain mn
in
humidity
%
barometer
mb
20260901023639 85 228 2.6 13.9 0.00 0.00 0.00 33 1017.3
20260901022638 85 217 5.2 11.3 0.00 0.00 0.00 32 1016.8
20260901021749 86 178 12.2 19.1 0.00 0.00 0.00 31 1016.5
20260901020739 87 286 7.8 12.2 0.00 0.00 0.00 28 1015.6
20260901015746 88 360 7.8 13.0 0.00 0.00 0.00 27 1015.4
20260901014746 90 252 9.6 14.8 0.00 0.00 0.00 25 1015.2
20260901012741 91 246 0.9 5.2 0.00 0.00 0.00 23 1014.7
20260901010729 92 228 1.7 4.3 0.00 0.00 0.00 22 1014.5
20260901004736 93 213 2.6 3.5 0.00 0.00 0.00 21 1014.5
20260901003732 93 60 1.7 2.6 0.00 0.00 0.00 21 1014.5
20260901002741 92 36 2.6 3.5 0.00 0.00 0.00 21 1014.6
20260901001737 92 19 2.6 8.7 0.00 0.00 0.00 21 1014.8
20260901000735 93 15 5.2 9.6 0.00 0.00 0.00 22 1014.8
20260831235725 94 97 6.1 14.8 0.00 0.00 0.00 21 1014.9
20260831233737 97 96 7.0 11.3 0.00 0.00 0.00 18 1014.4
20260831232730 99 216 3.5 9.6 0.00 0.00 0.00 16 1014.3
20260831231737 101 214 5.2 8.7 0.00 0.00 0.00 15 1014.0
20260831225728 101 277 6.1 10.4 0.00 0.00 0.00 15 1014.1
20260831224738 101 182 2.6 10.4 0.00 0.00 0.00 16 1014.2
20260831223729 101 284 1.7 8.7 0.00 0.00 0.00 16 1014.3
20260831222728 101 225 2.6 7.0 0.00 0.00 0.00 16 1014.6
20260831221736 101 207 2.6 11.3 0.00 0.00 0.00 16 1014.6
20260831220742 101 300 6.1 9.6 0.00 0.00 0.00 16 1014.6
20260831215738 100 300 1.7 7.8 0.00 0.00 0.00 17 1014.8
20260831214728 100 42 3.5 9.6 0.00 0.00 0.00 17 1015.0
20260831213738 100 119 3.5 10.4 0.00 0.00 0.00 17 1015.4
20260831212739 101 184 4.3 10.4 0.00 0.00 0.00 17 1015.5
20260831211734 101 147 7.8 12.2 0.00 0.00 0.00 17 1015.7
20260831210723 100 208 5.2 9.6 0.00 0.00 0.00 17 1015.8
20260831205729 100 96 5.2 10.4 0.00 0.00 0.00 17 1016.1
20260831204739 101 169 7.0 12.2 0.00 0.00 0.00 17 1016.2
20260831203729 101 130 3.5 7.8 0.00 0.00 0.00 17 1016.5
20260831202737 101 142 3.5 9.6 0.00 0.00 0.00 17 1016.7
20260831201730 100 301 6.1 10.4 0.00 0.00 0.00 17 1016.9
20260831195739 101 201 5.2 7.8 0.00 0.00 0.00 18 1017.2
20260831193735 99 200 3.5 8.7 0.00 0.00 0.00 19 1017.4
20260831191722 98 329 2.6 4.3 0.00 0.00 0.00 20 1017.7
20260831190734 97 16 2.6 7.8 0.00 0.00 0.00 20 1017.7
20260831185727 97 207 5.2 7.8 0.00 0.00 0.00 20 1017.9
20260831184720 97 238 3.5 7.8 0.00 0.00 0.00 20 1018.0
20260831183725 98 276 2.6 4.3 0.00 0.00 0.00 20 1018.0
20260831181718 95 142 0.0 4.3 0.00 0.00 0.00 22 1018.2
20260831180729 95 30 1.7 4.3 0.00 0.00 0.00 22 1018.4
20260831175731 94 294 1.7 7.0 0.00 0.00 0.00 23 1018.5
20260831174728 94 313 2.6 5.2 0.00 0.00 0.00 23 1018.5
20260831173722 94 283 1.7 3.5 0.00 0.00 0.00 23 1018.6
20260831172731 93 134 0.0 7.0 0.00 0.00 0.00 23 1018.7
20260831171725 93 111 2.6 6.1 0.00 0.00 0.00 24 1018.8
20260831170726 92 192 0.9 5.2 0.00 0.00 0.00 25 1018.7
20260831163735 90 200 1.7 5.2 0.00 0.00 0.00 27 1018.9
20260831162715 89 249 1.7 3.5 0.00 0.00 0.00 28 1019.0
20260831161729 88 300 1.7 5.2 0.00 0.00 0.00 29 1018.9
20260831160721 87 277 1.7 5.2 0.00 0.00 0.00 30 1018.7
20260831155721 86 264 1.7 5.2 0.00 0.00 0.00 30 1018.8
20260831154728 85 246 1.7 6.1 0.00 0.00 0.00 31 1018.6
20260831153726 85 232 2.6 6.1 0.00 0.00 0.00 31 1018.7
20260831152718 85 281 3.5 5.2 0.00 0.00 0.00 31 1018.6
20260831151730 84 286 3.5 5.2 0.00 0.00 0.00 31 1018.5
20260831150725 84 320 2.6 3.5 0.00 0.00 0.00 33 1017.9
20260831145733 83 336 2.6 4.3 0.00 0.00 0.00 33 1017.9
20260831143715 82 16 1.7 3.5 0.00 0.00 0.00 34 1018.0
20260831142731 81 26 2.6 4.3 0.00 0.00 0.00 35 1017.8
20260831141724 80 63 2.6 6.1 0.00 0.00 0.00 36 1017.7
20260831140718 80 22 3.5 7.0 0.00 0.00 0.00 37 1017.7
20260831135732 79 337 4.3 7.8 0.00 0.00 0.00 38 1017.6
20260831134726 78 23 4.3 7.0 0.00 0.00 0.00 39 1017.5
20260831132722 77 69 3.5 6.1 0.00 0.00 0.00 40 1017.1
20260831131721 76 46 1.7 6.1 0.00 0.00 0.00 40 1017.1
20260831130716 75 80 3.5 4.3 0.00 0.00 0.00 40 1016.9
20260831125725 75 71 2.6 3.5 0.00 0.00 0.00 40 1016.8
20260831124721 75 67 1.7 5.2 0.00 0.00 0.00 39 1016.6
20260831123712 75 28 2.6 7.0 0.00 0.00 0.00 39 1016.3
20260831122709 75 44 4.3 7.0 0.00 0.00 0.00 39 1016.2
20260831121723 75 55 3.5 7.0 0.00 0.00 0.00 40 1016.3
20260831120716 73 57 3.5 7.0 0.00 0.00 0.00 42 1016.2
20260831115728 73 90 1.7 3.5 0.00 0.00 0.00 42 1016.2
20260831114723 73 109 0.9 3.5 0.00 0.00 0.00 42 1016.4
20260831113719 73 96 2.6 3.5 0.00 0.00 0.00 42 1016.4
20260831112714 74 92 4.3 6.1 0.00 0.00 0.00 42 1016.4
20260831110727 76 140 1.7 4.3 0.00 0.00 0.00 38 1016.5
20260831105723 76 262 0.9 3.5 0.00 0.00 0.00 38 1016.3
20260831104723 76 327 2.6 5.2 0.00 0.00 0.00 38 1016.2
20260831103717 76 315 3.5 4.3 0.00 0.00 0.00 37 1016.1
20260831102711 77 298 1.7 2.6 0.00 0.00 0.00 37 1015.9
20260831100718 78 342 0.9 3.5 0.00 0.00 0.00 36 1015.6
20260831095711 79 317 1.7 3.5 0.00 0.00 0.00 35 1015.7
20260831094726 79 343 0.0 3.5 0.00 0.00 0.00 34 1015.6
20260831093715 80 304 1.7 2.6 0.00 0.00 0.00 32 1015.4
20260831091709 81 111 0.0 1.7 0.00 0.00 0.00 32 1015.3
20260831090717 82 111 0.9 1.7 0.00 0.00 0.00 31 1016.1
20260831085715 82 111 0.9 2.6 0.00 0.00 0.00 30 1016.1
20260831083726 84 114 2.6 5.2 0.00 0.00 0.00 28 1016.1
20260831082715 85 59 3.5 6.1 0.00 0.00 0.00 28 1015.9
20260831081710 85 40 4.3 7.0 0.00 0.00 0.00 29 1016.0
20260831075718 83 150 3.5 8.7 0.00 0.00 0.00 31 1016.3
20260831074715 84 244 0.9 4.3 0.00 0.00 0.00 33 1016.5
20260831073710 84 76 0.9 4.3 0.00 0.00 0.00 31 1016.5
20260831072723 84 69 2.6 5.2 0.00 0.00 0.00 31 1016.4
20260831071715 84 48 3.5 7.0 0.00 0.00 0.00 32 1016.6
20260831070719 84 49 5.2 8.7 0.00 0.00 0.00 34 1016.7
20260831065710 85 62 3.5 6.1 0.00 0.00 0.00 29 1016.7
20260831064705 85 83 1.7 4.3 0.00 0.00 0.00 29 1016.8
20260831063721 85 5 4.3 7.8 0.00 0.00 0.00 29 1016.9
20260831061712 85 24 1.7 5.2 0.00 0.00 0.00 27 1017.0
20260831060708 84 69 3.5 7.8 0.00 0.00 0.00 27 1017.1
20260831055721 83 69 5.2 7.8 0.00 0.00 0.00 27 1017.1
20260831054721 83 78 2.6 3.5 0.00 0.00 0.00 28 1016.9
20260831053718 83 135 1.7 2.6 0.00 0.00 0.00 28 1016.8
20260831052714 83 296 0.9 1.7 0.00 0.00 0.00 29 1016.8
20260831051707 83 294 0.0 2.6 0.00 0.00 0.00 27 1017.0
20260831050723 83 307 0.9 5.2 0.00 0.00 0.00 27 1017.0
20260831045711 83 115 0.0 2.6 0.00 0.00 0.00 27 1016.8
20260831044703 83 113 2.6 3.5 0.00 0.00 0.00 27 1016.9
20260831043712 83 141 0.9 2.6 0.00 0.00 0.00 27 1016.8
20260831042708 83 110 1.7 2.6 0.00 0.00 0.00 26 1016.8
20260831041720 84 130 0.0 1.7 0.00 0.00 0.00 26 1016.7
20260831040711 84 124 1.7 2.6 0.00 0.00 0.00 26 1016.6
20260831035706 85 128 1.7 2.6 0.00 0.00 0.00 26 1016.7
20260831034714 85 128 1.7 2.6 0.00 0.00 0.00 25 1016.4
20260831033709 85 123 1.7 2.6 0.00 0.00 0.00 26 1016.3
20260831032704 86 127 1.7 2.6 0.00 0.00 0.00 26 1016.4
20260831031718 86 132 2.6 5.2 0.00 0.00 0.00 26 1016.1
20260831030708 87 126 2.6 3.5 0.00 0.00 0.00 26 1016.0
20260831025718 87 135 1.7 3.5 0.00 0.00 0.00 25 1015.9
20260831024715 88 148 1.7 3.5 0.00 0.00 0.00 24 1015.6